Theta_e
295 295 294 295 296 296 296 297 297 297 298 298 299 298 297 298 302 304 303 304 304 299 298 299 299 302 301 302 306 302 304 303 303 308 309 306 305 305 305 305 304 305 307 306 304 305 306 302 303 305 304 300 301 299
294 293 293 293 294 296 298 299 299 297 296 297 298 301 300 300 302 305 302 301 302 299 298 298 298 298 298 300 301 299 304 301 304 306 302 302 306 303 304 306 303 307 306 307 306 306 302 302 302 299 299 300 298 297
294 294 294 293 293 294 297 299 300 299 299 297 297 298 300 301 302 303 300 300 300 299 299 299 299 299 301 301 300 304 301 300 302 299 302 303 307 304 308 306 304 303 301 305 304 303 302 300 298 297 296 297 295 295
295 294 293 293 293 293 294 297 299 299 299 299 298 298 299 299 299 302 301 298 301 297 301 299 298 298 300 301 301 301 300 299 298 299 301 303 308 300 305 304 305 304 303 304 304 302 300 300 298 297 295 295 295 294
294 294 293 293 293 293 294 295 296 298 298 299 299 299 300 300 300 300 299 298 298 299 299 299 297 298 299 300 301 301 300 300 300 302 302 305 297 300 297 299 303 301 304 306 309 304 304 302 299 295 295 295 294 295
293 292 292 292 293 294 294 296 296 297 299 299 299 299 299 298 298 299 297 299 299 299 298 301 296 298 298 298 298 296 297 296 297 300 298 296 297 300 302 303 301 299 300 300 303 298 297 295 295 294 295 293 293 294
291 291 292 293 294 295 296 297 297 298 298 299 298 298 298 296 296 296 296 298 299 299 296 299 299 297 297 296 296 296 295 294 297 295 297 298 299 297 297 301 300 298 299 298 296 296 297 295 296 293 293 292 292 292
291 292 293 294 295 296 296 297 298 298 298 298 298 297 297 297 298 298 297 297 298 297 294 297 299 300 297 297 299 293 297 295 294 294 295 299 297 295 299 299 297 297 297 296 295 293 294 293 292 292 292 291 290 289
291 293 293 294 294 295 296 297 297 298 298 298 297 297 297 296 296 297 296 297 297 297 296 296 299 300 296 294 293 295 293 298 292 297 298 297 296 299 300 298 298 297 298 296 293 292 292 292 292 291 291 290 290 288
291 293 293 292 292 293 295 296 297 297 297 295 295 295 293 296 296 295 295 293 292 291 293 296 296 299 296 294 295 295 293 295 298 296 295 297 298 297 296 297 297 296 294 292 291 292 292 292 292 291 291 290 289 287
293 293 292 291 291 292 293 295 296 296 295 295 293 294 295 295 294 290 292 294 293 296 294 297 298 297 295 298 296 293 295 295 297 298 298 298 299 298 295 294 292 293 291 290 290 289 290 292 292 291 289 288 287 285
293 292 292 292 291 292 293 294 294 294 295 295 295 294 294 290 289 292 293 295 296 298 294 299 298 297 296 293 296 294 296 297 298 296 299 299 299 297 295 291 289 290 289 288 288 288 289 290 290 288 287 285 284 283
293 292 292 292 293 294 294 295 295 294 294 294 291 289 291 289 289 293 294 297 297 295 295 298 300 300 298 297 295 297 299 299 297 300 299 300 298 296 293 289 287 287 287 286 285 287 287 287 287 287 284 284 283 281
293 292 292 291 293 294 295 294 293 293 293 290 289 288 290 291 293 294 295 296 293 295 296 299 299 299 297 299 297 299 298 298 300 299 299 300 297 295 291 288 287 285 285 284 284 285 285 285 284 285 284 283 281 280
293 292 291 290 290 291 292 293 293 292 292 291 289 288 292 291 291 291 291 295 294 294 296 297 297 297 298 298 297 298 298 299 299 300 300 297 295 292 291 288 286 285 283 284 283 282 282 283 282 281 281 281 281 281
293 292 290 290 290 290 290 292 291 291 290 291 291 291 290 292 291 291 291 295 294 296 296 296 296 297 298 299 299 299 299 299 299 298 297 295 293 292 291 289 286 285 285 284 284 283 282 281 281 280 279 280 281 281
293 291 290 290 290 290 290 290 291 287 288 291 290 289 289 290 291 291 292 294 294 299 299 298 299 298 297 299 299 298 298 298 297 296 294 294 294 293 290 289 287 286 285 285 284 283 282 282 280 280 280 279 280 280
291 291 290 290 290 291 290 289 286 287 290 289 290 289 289 289 290 291 292 293 297 298 298 298 298 298 298 299 299 298 297 296 294 294 293 292 292 291 290 289 288 286 285 285 284 283 282 282 282 282 281 279 279 279
291 290 290 290 291 290 286 287 287 288 289 289 288 287 288 288 288 288 289 289 291 292 295 296 296 296 299 297 298 297 296 296 296 295 292 290 290 290 289 288 287 286 285 284 284 284 283 283 283 282 281 280 280 279
291 290 290 290 290 287 283 287 287 288 289 288 289 289 288 288 288 288 289 290 291 292 292 293 295 296 297 297 296 297 295 294 295 295 295 292 291 289 289 288 288 287 286 284 284 284 283 283 282 282 281 280 280 280
290 288 288 289 286 285 283 284 286 287 288 288 287 288 288 287 288 288 288 288 290 290 291 292 292 292 293 294 295 295 294 294 295 295 295 295 291 290 288 288 287 286 286 285 284 284 284 284 283 282 282 281 281 280
285 286 286 285 284 284 284 284 284 284 287 288 289 288 288 288 288 288 287 288 289 289 290 290 291 291 290 290 290 291 292 291 292 293 294 294 292 290 289 288 286 286 285 285 285 285 284 284 283 282 282 282 282 281
285 285 285 284 279 279 281 284 286 285 285 286 288 288 288 289 289 287 289 289 289 288 288 288 288 289 289 289 289 289 289 290 291 292 293 294 294 294 293 291 289 287 287 286 285 285 285 284 284 283 282 282 282 281
284 284 281 283 283 280 285 284 286 287 286 286 285 284 286 287 288 289 289 289 289 286 286 287 287 288 288 289 289 289 290 290 291 291 292 293 294 293 295 295 294 289 288 288 286 285 284 283 283 283 282 282 282 281
280 278 279 277 281 279 279 283 285 286 282 285 285 282 284 285 285 285 287 287 288 289 289 288 289 289 290 290 290 290 290 289 290 291 291 292 293 293 293 293 294 292 290 288 287 285 284 283 283 283 283 282 281 281
276 275 278 279 277 281 282 280 278 280 282 281 285 285 284 284 282 283 287 288 288 288 287 289 289 289 290 290 291 291 289 289 289 290 291 292 293 294 294 293 291 291 292 291 289 286 285 284 284 283 282 283 283 282
274 275 280 280 282 284 281 282 284 282 277 279 283 281 281 280 280 284 288 287 288 286 286 287 287 287 288 288 289 290 289 289 290 291 291 292 292 293 293 294 293 294 294 295 294 291 289 287 285 285 284 283 284 284
278 280 276 279 280 282 277 278 278 278 282 284 283 280 281 282 283 287 287 284 283 283 284 285 285 285 286 287 288 288 288 288 289 289 291 291 291 291 292 293 293 293 295 294 294 292 291 290 289 288 286 286 286 286
278 281 278 272 274 281 279 279 280 282 283 284 281 281 281 283 285 283 283 282 282 282 283 284 285 285 285 286 287 288 287 287 287 287 287 287 286 288 290 290 291 292 292 292 293 293 293 293 292 291 290 289 288 286
277 281 275 268 274 277 278 280 280 279 281 282 282 281 282 282 283 282 282 282 282 282 282 283 284 284 284 285 285 286 286 287 287 286 288 288 288 288 288 288 288 288 289 289 290 291 292 290 289 288 287 286 285 284
280 279 276 275 273 275 275 270 274 276 275 276 273 279 281 280 281 281 281 282 282 282 283 284 284 284 284 285 285 284 285 287 287 286 286 286 285 285 285 286 287 288 288 288 288 289 290 290 290 289 288 286 286 286
272 274 273 273 274 271 269 271 271 273 272 273 276 270 273 275 277 280 281 282 282 282 283 283 282 284 285 286 286 286 285 284 284 284 285 285 286 286 286 286 286 287 288 288 288 288 288 289 290 289 288 287 287 287
266 265 266 267 271 272 269 271 273 273 271 273 274 271 273 276 277 279 281 281 281 281 282 282 284 284 285 285 286 286 285 285 285 285 285 285 285 285 285 286 286 286 286 286 287 287 288 289 289 289 289 289 288 288
Wind_Speed
27 28 30 34 36 32 28 23 21 19 17 17 16 16 18 19 15 10 11 8 6 3 2 4 4 3 2 2 4 4 4 0 2 2 3 3 3 5 3 5 6 7 7 4 4 4 7 7 5 5 1 2 7 6
28 29 30 34 32 32 29 26 23 17 16 17 16 15 17 18 15 14 9 17 17 11 3 7 13 11 2 0 4 0 1 3 4 4 1 3 2 2 3 3 1 4 5 4 9 5 1 4 1 2 3 4 4 7
26 28 28 28 28 27 26 26 25 25 24 20 20 19 18 19 16 12 18 12 12 4 3 3 3 5 11 3 2 4 1 4 2 1 3 2 3 3 4 5 3 3 4 3 2 3 5 6 3 4 3 5 8 8
22 23 26 26 26 25 24 23 23 24 24 21 18 18 17 16 16 18 13 11 12 8 4 1 5 5 9 2 4 3 9 7 7 2 2 2 2 3 2 1 2 2 6 4 4 5 3 9 8 8 7 10 10 10
21 22 21 22 23 23 23 23 22 21 24 24 23 21 20 20 19 22 24 17 11 6 4 2 2 9 11 9 11 12 17 5 2 2 2 2 2 3 1 1 3 6 6 5 5 5 2 1 8 13 11 9 11 9
20 19 20 21 21 21 21 21 22 22 20 21 22 23 22 20 22 16 4 11 12 8 4 3 2 5 9 13 19 15 9 4 2 2 2 1 1 1 3 3 6 7 5 3 2 3 3 3 7 12 9 10 11 8
17 19 20 22 21 21 21 23 25 25 21 18 16 14 13 9 9 11 4 3 8 8 3 4 3 3 6 4 4 5 7 3 2 2 2 1 1 1 2 3 4 3 4 3 5 8 3 6 5 10 13 13 11 9
20 20 20 21 22 21 22 23 24 25 26 27 26 24 23 22 16 15 19 10 9 11 6 4 2 1 6 2 2 6 2 2 5 2 1 1 1 1 3 8 3 2 4 5 6 3 2 11 15 12 16 15 11 10
21 22 22 22 22 20 20 20 19 18 18 17 16 13 8 11 7 3 8 11 15 7 3 3 4 3 2 2 1 2 2 2 2 1 1 1 1 5 7 5 4 8 5 8 6 7 10 10 11 12 15 13 9 9
20 20 20 20 19 18 16 16 15 14 13 10 4 6 3 4 3 3 4 4 5 4 3 3 1 3 2 1 2 1 2 2 0 1 1 2 3 11 7 5 5 5 7 11 7 6 8 10 11 12 10 13 11 13
21 20 19 18 16 16 14 13 13 12 6 3 4 2 4 4 2 5 3 3 2 3 2 1 2 4 0 2 2 1 2 1 0 1 1 1 3 2 2 5 5 4 13 8 3 4 10 12 14 12 11 12 12 13
20 18 17 17 15 15 13 11 7 6 7 8 14 8 4 4 3 5 2 1 3 2 1 3 3 2 2 2 3 1 2 2 0 2 1 2 3 2 2 3 4 2 11 8 6 14 9 12 15 15 14 14 13 17
19 17 16 16 17 17 16 16 18 16 10 5 5 4 3 3 7 3 2 1 2 2 2 3 4 2 2 2 3 2 2 2 3 1 2 4 3 2 1 2 4 6 10 9 10 12 14 17 17 19 18 15 19 21
20 18 16 15 15 15 13 10 8 6 4 4 3 5 3 3 3 2 2 2 1 3 5 5 2 2 1 2 2 3 2 3 2 2 3 2 2 1 4 5 6 5 8 10 12 14 17 18 17 16 17 21 23 24
21 18 17 14 12 11 10 8 7 7 5 3 3 3 3 0 1 1 1 2 2 3 3 3 3 1 1 3 1 3 3 2 3 3 2 2 5 3 5 5 6 8 10 10 11 14 15 17 17 16 18 19 21 23
21 16 14 11 11 10 9 9 10 5 4 3 4 4 1 2 1 2 2 2 1 2 2 2 2 1 1 2 3 4 4 4 1 1 2 3 1 4 5 8 10 10 11 12 12 13 14 15 15 15 16 17 20 22
14 7 11 11 11 10 8 6 5 5 3 3 2 2 2 2 2 1 1 1 4 2 2 1 2 2 2 1 2 2 2 2 6 5 4 4 2 4 8 9 10 11 12 13 14 14 13 13 15 15 14 14 18 18
11 18 14 12 11 11 8 8 5 3 4 2 2 0 0 1 2 1 1 1 0 2 2 1 1 2 3 3 2 2 2 2 1 2 3 5 1 5 8 9 10 11 11 12 15 15 16 16 16 13 13 15 14 14
23 18 14 10 6 5 5 5 5 3 2 1 1 0 1 1 1 1 1 3 3 3 2 1 2 3 2 1 3 5 2 2 4 3 2 4 2 4 5 7 9 11 11 13 15 15 15 16 15 14 14 17 15 15
22 16 13 10 5 4 4 3 3 2 2 1 1 0 0 0 1 1 1 1 2 2 1 3 3 1 1 2 1 2 3 5 2 3 3 1 4 6 9 9 8 9 9 11 13 13 13 14 14 16 17 18 17 18
23 18 13 11 6 8 5 2 2 1 1 1 1 1 1 1 0 1 2 3 1 3 3 4 3 3 6 5 6 8 6 6 3 2 3 1 4 5 7 11 11 11 11 13 15 15 16 16 16 18 21 21 19 18
10 10 7 7 5 4 3 2 2 1 1 0 1 1 0 0 1 2 2 2 2 3 3 3 3 4 6 6 12 13 14 13 16 13 11 6 3 5 7 13 14 13 15 17 17 16 16 15 17 21 24 23 19 19
12 7 5 4 5 4 1 1 1 1 1 1 0 1 1 2 2 3 1 2 2 5 8 8 11 17 14 18 16 18 21 18 14 14 16 16 14 12 8 11 16 16 15 17 19 17 16 18 20 22 25 23 20 19
8 4 3 2 2 1 1 1 1 1 1 1 1 1 2 2 1 2 2 2 2 4 3 7 10 6 5 5 5 10 17 18 18 18 20 15 10 13 18 12 11 19 21 16 19 20 18 22 25 25 24 25 23 23
5 3 3 2 1 3 2 1 2 2 2 4 2 2 2 1 1 2 3 1 2 2 3 7 5 3 3 5 10 14 21 16 14 13 18 18 16 12 14 18 18 20 19 20 19 20 19 22 25 27 29 27 26 27
3 3 3 4 1 3 4 3 3 5 2 2 4 1 1 1 1 3 2 1 1 1 2 2 3 3 5 8 10 13 14 9 10 12 15 15 16 16 13 12 10 12 17 21 22 22 22 23 27 28 29 31 32 29
2 3 2 3 1 2 1 1 2 2 3 4 2 2 2 1 4 2 1 3 0 8 10 9 6 7 9 12 15 14 15 13 7 6 6 7 8 11 15 13 13 12 9 15 23 27 28 28 28 31 31 29 33 35
3 3 5 3 2 1 3 1 3 4 3 3 3 3 5 6 3 1 3 6 13 18 20 19 15 14 14 15 13 13 9 6 8 10 9 8 6 6 7 10 12 12 13 15 17 20 24 27 28 29 31 33 34 35
2 2 4 1 1 2 4 5 4 3 2 3 4 3 3 2 4 3 4 14 17 18 20 23 27 22 20 17 11 4 6 7 6 3 3 3 4 1 5 7 5 2 2 7 11 14 16 21 23 25 27 28 29 29
3 4 3 2 5 5 4 4 2 2 2 2 2 1 2 2 6 12 15 18 20 22 23 23 24 20 17 16 17 17 11 4 5 2 1 2 4 9 13 11 10 11 9 9 7 8 10 16 19 21 21 21 22 24
2 3 2 2 4 3 2 2 2 2 2 1 2 3 4 2 10 18 21 23 24 25 24 23 25 21 16 19 17 13 10 2 3 3 8 12 13 12 13 13 10 11 10 11 12 12 12 15 18 22 24 25 26 28
2 4 4 2 3 2 4 2 1 1 2 1 3 1 2 3 5 10 20 22 23 21 24 26 23 25 18 15 11 8 7 8 7 7 9 10 12 14 14 13 12 13 13 14 15 15 16 18 20 23 24 27 28 30
2 2 2 2 3 3 2 2 3 4 2 2 3 2 3 4 6 5 5 7 10 12 14 14 10 10 8 7 7 8 9 9 10 9 9 12 14 14 15 15 14 13 14 16 17 17 19 21 25 26 27 28 27 29
Wind_Direction
113 115 112 107 103 107 112 109 110 118 120 122 125 149 156 161 151 144 107 105 102 95 40 27 31 104 93 132 143 163 102 315 75 124 144 183 172 203 181 163 176 176 160 187 170 214 271 154 123 200 98 83 149 154
111 110 109 107 108 110 114 112 112 118 124 126 139 134 150 151 148 132 94 105 93 80 113 97 84 64 44 31 125 89 135 155 166 100 147 124 150 163 173 210 147 204 198 185 202 217 103 199 34 101 144 150 154 152
110 105 100 102 108 110 112 111 109 108 116 133 150 155 150 149 139 132 129 117 92 97 62 77 26 32 29 29 163 119 253 151 130 62 143 126 152 150 174 226 170 231 173 230 183 197 218 217 186 161 158 130 134 127
113 107 106 106 106 108 108 110 108 105 103 104 118 133 142 139 139 140 115 91 101 95 107 322 23 32 356 18 185 123 131 104 104 64 92 130 150 190 190 111 213 215 157 188 253 252 279 244 209 165 129 128 127 134
114 109 107 108 108 111 111 110 108 104 101 99 104 112 122 122 127 122 94 73 99 117 136 100 68 29 33 77 96 120 122 106 105 87 88 151 117 144 87 116 238 187 190 187 228 203 191 188 193 161 154 149 146 145
114 111 108 103 103 104 104 105 105 103 106 111 112 109 107 111 121 121 58 46 82 104 103 104 356 5 22 60 65 54 46 59 71 116 138 163 350 171 156 201 255 216 212 201 228 139 107 51 135 145 133 140 147 149
110 107 106 107 104 102 106 104 101 102 105 109 114 115 106 97 104 68 110 95 96 96 88 107 89 355 348 14 34 29 43 73 69 92 50 71 90 93 155 201 273 251 215 154 139 127 98 174 158 144 134 134 129 121
115 112 108 106 106 108 110 112 114 106 105 105 104 101 94 85 80 61 57 74 88 96 72 105 91 79 16 30 47 356 50 38 26 98 106 114 123 59 253 240 257 155 134 147 157 60 121 122 127 125 133 132 135 132
118 117 117 114 109 109 114 118 118 114 110 105 103 95 70 44 49 42 70 65 62 71 106 85 130 143 46 52 12 52 17 66 353 98 136 139 135 229 231 214 207 194 192 166 126 107 123 127 138 144 148 155 154 150
119 116 109 104 102 104 109 112 116 117 113 97 86 49 47 51 67 55 53 27 21 351 37 81 154 123 95 63 79 73 25 55 57 51 103 212 263 266 288 268 260 202 155 143 120 139 141 150 159 167 172 172 172 162
123 119 111 103 99 100 107 111 112 118 108 60 62 81 102 79 106 36 62 66 331 60 34 82 85 125 12 119 123 19 113 91 102 71 264 290 265 259 355 330 334 242 174 169 109 146 164 173 166 164 162 160 153 153
127 117 107 100 95 96 107 110 109 106 93 99 114 112 85 38 48 79 34 59 42 107 137 114 131 126 138 116 101 165 113 178 110 157 266 261 254 266 337 337 356 107 147 131 124 139 142 156 156 151 151 148 157 163
127 118 107 97 90 91 98 101 99 97 101 91 68 66 51 324 53 79 123 95 117 159 148 144 121 97 120 118 81 152 153 151 144 204 251 247 277 240 143 100 72 104 129 125 117 126 136 140 151 155 152 158 158 160
134 125 114 108 104 101 103 95 72 57 54 62 62 40 57 16 67 77 87 108 114 120 132 135 92 110 116 126 150 151 91 147 175 223 241 252 289 245 135 128 128 127 122 121 128 137 138 142 142 151 160 162 162 160
137 128 117 105 105 102 96 81 58 56 58 66 52 65 61 57 60 39 304 101 58 129 115 112 93 128 118 117 194 119 154 197 217 225 234 311 329 159 145 146 143 139 135 137 145 143 145 145 146 149 161 162 165 159
138 120 104 112 103 96 90 84 56 55 59 59 60 86 69 80 10 40 44 81 57 147 104 60 128 125 136 129 171 201 174 210 231 248 310 325 335 180 168 162 165 158 154 153 151 150 152 157 156 158 157 163 165 166
146 121 145 120 106 98 86 64 36 45 75 59 66 46 97 90 113 139 149 132 151 106 120 123 155 177 98 177 226 194 214 4 323 317 318 306 244 197 170 163 161 166 168 164 157 161 161 158 152 153 159 167 168 175
115 140 134 125 119 97 44 38 70 55 61 52 83 58 44 99 114 91 96 83 136 113 133 155 113 185 193 200 197 121 52 334 301 338 354 1 52 157 171 174 171 173 183 180 174 165 163 163 167 171 166 167 165 172
138 139 141 133 113 81 63 32 31 81 45 49 77 79 358 350 300 330 7 23 50 48 81 167 211 219 236 153 137 119 117 38 359 336 360 29 95 156 173 179 178 174 178 187 186 181 180 179 177 172 172 173 176 176
139 133 133 125 83 78 72 57 29 69 68 349 4 75 274 150 115 84 74 87 82 80 151 209 225 217 174 135 149 167 192 202 191 336 282 182 144 173 186 181 190 188 183 192 198 190 182 182 185 181 184 187 184 187
129 119 115 111 56 57 93 102 64 55 23 2 348 5 334 28 154 170 195 158 152 204 218 209 229 229 211 244 228 201 220 223 251 241 281 258 176 183 192 201 194 186 191 200 201 205 200 200 193 187 189 199 203 203
101 109 95 54 71 49 75 47 115 103 115 298 252 181 219 236 242 220 151 181 228 217 202 201 218 241 267 256 247 248 250 283 288 273 253 218 154 170 201 199 188 196 199 205 207 209 214 211 202 199 197 205 210 210
105 78 62 57 66 45 21 81 113 150 141 175 136 212 215 223 225 138 242 212 244 236 229 236 252 260 253 267 273 276 278 271 259 251 249 242 245 227 220 197 209 200 206 209 206 213 217 213 211 213 209 204 203 206
87 61 72 82 92 144 149 147 186 244 117 193 131 254 221 225 109 219 245 225 243 335 321 294 279 282 285 277 277 282 283 271 253 256 256 245 233 224 227 230 256 225 217 210 203 208 211 213 218 216 215 206 203 206
83 335 89 23 335 92 94 94 186 187 198 204 156 280 253 124 169 244 223 303 359 332 332 348 0 319 292 295 290 295 298 265 249 245 257 257 251 240 225 228 230 237 225 207 203 203 206 211 215 214 217 214 210 210
109 257 112 171 173 151 175 154 190 200 160 181 219 201 68 114 181 247 179 181 254 265 259 341 3 330 310 298 292 311 320 306 261 237 251 253 246 218 208 205 203 227 239 233 225 212 207 208 212 213 217 221 221 218
134 240 177 204 198 163 65 32 160 124 163 190 214 163 118 175 239 229 217 239 10 353 334 316 293 287 287 299 309 318 329 335 294 271 272 277 280 267 249 228 220 237 260 244 238 234 226 220 217 218 219 222 226 225
189 167 163 199 160 151 141 124 166 203 214 195 133 176 184 198 220 184 207 349 348 338 329 324 325 320 312 301 298 312 316 299 309 300 283 276 280 284 260 251 249 245 237 258 261 248 239 238 236 230 225 225 230 233
193 185 114 88 12 173 196 190 215 222 208 155 168 210 230 220 176 177 308 326 325 323 316 308 307 317 317 322 322 295 313 308 319 345 312 302 343 72 51 37 55 92 230 246 254 257 255 250 250 249 248 244 242 240
229 150 105 100 158 212 230 189 222 255 220 190 188 334 306 264 254 305 310 308 303 296 295 294 293 295 298 309 310 319 332 317 279 312 319 346 328 315 320 324 328 332 324 339 296 271 267 248 249 246 242 239 233 233
140 119 96 148 219 241 241 306 290 270 341 296 338 211 245 286 286 287 289 286 283 279 272 274 281 284 283 291 283 295 311 338 172 258 304 307 310 309 311 311 308 312 308 305 297 275 267 261 256 249 244 238 237 235
62 156 143 175 263 296 3 44 332 244 297 254 244 232 290 306 288 286 272 257 259 260 265 270 276 277 288 282 276 274 296 306 309 314 316 314 318 320 319 310 300 300 302 298 301 292 270 261 257 250 244 241 239 240
63 59 58 48 356 342 333 64 25 318 327 286 268 240 220 195 230 264 296 287 275 285 291 287 295 296 290 263 279 294 294 294 298 305 306 306 307 312 315 315 309 306 303 299 294 289 283 268 256 249 245 242 242 243